Tracking 30995 objects as of 5-Jul-2025
HD Live streaming from Space Station
objects crossing your sky now

COSMOS 841

Track COSMOS 841 now!
10-day predictions
COSMOS 841 is classified as:


NORAD ID: 9022
Int'l Code: 1976-069A
Perigee: 767.8 km
Apogee: 785.6 km
Inclination: 74.0 °
Period: 100.2 minutes
Semi major axis: 7147 km
RCS: 2.1872 m2 (large)
Launch date: July 15, 1976
Source: Commonwealth of Independent States (former USSR) (CIS)
Launch site: PLESETSK MISSILE AND SPACE COMPLEX (PKMTR)
Your satellite tracking list
Your tracking list is empty




NASA's NSSDC Master Catalog

Two Line Element Set (TLE):
1  9022U 76069A   25186.55906244  .00000107  00000-0  45144-4 0  9998
2  9022  74.0414 217.8471 0012469  20.5965 339.5688 14.36668039562904
Source of the keplerian elements: AFSPC